QPF
0.00 0.00 0.00 0.00 0.00 0.00 0.00 0.00 0.00 0.00 0.00 0.00 0.00 0.00 0.00 0.00 0.00 0.00 0.00 0.00 0.00 0.00 0.00 0.00 0.00 0.00 0.00 0.00 0.00 0.00 0.01 0.01 0.01 0.02 0.02 0.02 0.02 0.02 0.02 0.01 0.01 0.01 0.01 0.01
0.00 0.00 0.00 0.00 0.00 0.00 0.00 0.00 0.00 0.00 0.00 0.00 0.00 0.00 0.00 0.00 0.00 0.00 0.00 0.00 0.00 0.00 0.00 0.00 0.00 0.00 0.00 0.00 0.01 0.01 0.02 0.02 0.02 0.03 0.03 0.03 0.03 0.03 0.04 0.04 0.04 0.04 0.04 0.03
0.00 0.00 0.00 0.00 0.00 0.00 0.00 0.00 0.00 0.00 0.00 0.00 0.00 0.00 0.00 0.00 0.00 0.00 0.00 0.00 0.00 0.00 0.00 0.00 0.00 0.01 0.01 0.01 0.01 0.02 0.03 0.03 0.04 0.04 0.04 0.05 0.04 0.05 0.06 0.07 0.07 0.08 0.06 0.05
0.00 0.00 0.00 0.00 0.00 0.00 0.00 0.00 0.00 0.00 0.00 0.00 0.00 0.00 0.00 0.00 0.00 0.00 0.00 0.00 0.00 0.00 0.00 0.00 0.00 0.01 0.01 0.02 0.02 0.02 0.03 0.04 0.05 0.06 0.06 0.06 0.06 0.06 0.06 0.08 0.09 0.09 0.08 0.07
0.00 0.00 0.00 0.00 0.00 0.00 0.00 0.00 0.00 0.00 0.00 0.00 0.00 0.00 0.00 0.00 0.00 0.00 0.00 0.00 0.00 0.00 0.00 0.00 0.01 0.01 0.02 0.02 0.02 0.03 0.03 0.05 0.06 0.08 0.09 0.09 0.09 0.09 0.08 0.09 0.09 0.09 0.09 0.08
0.00 0.00 0.00 0.00 0.00 0.00 0.00 0.00 0.00 0.00 0.00 0.00 0.00 0.00 0.00 0.00 0.00 0.00 0.00 0.00 0.00 0.00 0.00 0.01 0.01 0.02 0.02 0.03 0.03 0.03 0.04 0.05 0.06 0.08 0.09 0.10 0.09 0.09 0.09 0.09 0.08 0.07 0.07 0.07
0.00 0.00 0.00 0.00 0.00 0.00 0.00 0.00 0.00 0.00 0.00 0.00 0.00 0.00 0.00 0.00 0.00 0.00 0.00 0.00 0.00 0.00 0.00 0.01 0.02 0.02 0.03 0.03 0.04 0.04 0.04 0.05 0.05 0.07 0.08 0.08 0.09 0.10 0.10 0.09 0.09 0.08 0.07 0.07
0.00 0.00 0.00 0.00 0.00 0.00 0.00 0.00 0.00 0.00 0.00 0.00 0.00 0.00 0.00 0.00 0.00 0.00 0.00 0.00 0.00 0.00 0.01 0.01 0.02 0.03 0.04 0.04 0.04 0.04 0.04 0.05 0.06 0.07 0.07 0.07 0.09 0.09 0.09 0.09 0.09 0.08 0.08 0.08
0.00 0.00 0.00 0.00 0.00 0.00 0.00 0.00 0.00 0.00 0.00 0.00 0.00 0.00 0.00 0.00 0.00 0.00 0.00 0.00 0.00 0.01 0.01 0.01 0.02 0.03 0.04 0.04 0.04 0.04 0.05 0.06 0.07 0.08 0.07 0.08 0.09 0.09 0.09 0.08 0.09 0.09 0.09 0.08
0.00 0.00 0.00 0.00 0.00 0.00 0.00 0.00 0.00 0.00 0.00 0.00 0.00 0.00 0.00 0.00 0.00 0.00 0.00 0.00 0.01 0.01 0.01 0.02 0.02 0.02 0.03 0.04 0.04 0.05 0.07 0.07 0.07 0.07 0.07 0.08 0.08 0.08 0.08 0.08 0.08 0.09 0.08 0.08
0.00 0.00 0.00 0.00 0.00 0.00 0.00 0.00 0.00 0.00 0.00 0.00 0.00 0.00 0.00 0.00 0.00 0.00 0.00 0.00 0.01 0.01 0.01 0.02 0.02 0.02 0.03 0.04 0.05 0.06 0.07 0.07 0.07 0.07 0.07 0.08 0.09 0.07 0.06 0.07 0.07 0.06 0.07 0.08
0.00 0.00 0.00 0.00 0.00 0.00 0.00 0.00 0.00 0.00 0.00 0.00 0.00 0.00 0.00 0.00 0.00 0.00 0.00 0.00 0.01 0.01 0.01 0.02 0.02 0.02 0.03 0.04 0.06 0.07 0.07 0.07 0.07 0.07 0.08 0.08 0.08 0.07 0.04 0.04 0.03 0.02 0.03 0.04
0.00 0.00 0.00 0.00 0.00 0.00 0.00 0.00 0.00 0.00 0.00 0.00 0.00 0.00 0.00 0.00 0.00 0.00 0.00 0.00 0.01 0.01 0.02 0.02 0.02 0.02 0.03 0.04 0.06 0.07 0.07 0.06 0.07 0.07 0.08 0.07 0.06 0.07 0.07 0.05 0.04 0.02 0.02 0.01
0.00 0.00 0.00 0.00 0.00 0.00 0.00 0.00 0.00 0.00 0.00 0.00 0.00 0.00 0.00 0.00 0.00 0.00 0.00 0.00 0.01 0.01 0.01 0.02 0.02 0.02 0.03 0.04 0.06 0.06 0.06 0.05 0.06 0.06 0.06 0.06 0.05 0.05 0.05 0.07 0.07 0.05 0.02 0.01
0.00 0.00 0.00 0.00 0.00 0.00 0.00 0.00 0.00 0.00 0.00 0.00 0.00 0.00 0.00 0.00 0.00 0.00 0.00 0.00 0.01 0.01 0.01 0.02 0.02 0.02 0.02 0.04 0.07 0.06 0.05 0.05 0.05 0.06 0.05 0.05 0.04 0.04 0.04 0.05 0.06 0.05 0.03 0.01
0.00 0.00 0.00 0.00 0.00 0.00 0.00 0.00 0.00 0.00 0.00 0.00 0.00 0.00 0.00 0.00 0.00 0.00 0.00 0.01 0.01 0.01 0.01 0.02 0.02 0.02 0.02 0.04 0.06 0.05 0.04 0.03 0.04 0.05 0.05 0.04 0.04 0.04 0.04 0.05 0.05 0.04 0.03 0.02
0.00 0.00 0.00 0.00 0.00 0.00 0.00 0.00 0.00 0.00 0.00 0.00 0.00 0.00 0.00 0.00 0.00 0.00 0.00 0.01 0.01 0.01 0.01 0.02 0.02 0.01 0.02 0.04 0.05 0.04 0.04 0.03 0.03 0.03 0.04 0.04 0.04 0.04 0.03 0.04 0.05 0.04 0.03 0.02
0.00 0.00 0.00 0.00 0.00 0.00 0.00 0.00 0.00 0.00 0.00 0.00 0.00 0.00 0.00 0.00 0.00 0.00 0.00 0.01 0.01 0.01 0.01 0.01 0.01 0.01 0.02 0.03 0.04 0.04 0.03 0.02 0.02 0.02 0.03 0.03 0.03 0.03 0.03 0.04 0.05 0.04 0.04 0.03
0.00 0.00 0.00 0.00 0.00 0.00 0.00 0.00 0.00 0.00 0.00 0.00 0.00 0.00 0.00 0.00 0.00 0.00 0.00 0.01 0.01 0.01 0.01 0.01 0.01 0.01 0.01 0.02 0.03 0.03 0.03 0.02 0.02 0.02 0.02 0.02 0.03 0.04 0.04 0.04 0.04 0.04 0.05 0.06
0.00 0.00 0.00 0.00 0.00 0.00 0.00 0.00 0.00 0.00 0.00 0.00 0.00 0.00 0.00 0.00 0.00 0.00 0.00 0.01 0.01 0.01 0.01 0.01 0.01 0.01 0.01 0.01 0.02 0.02 0.02 0.01 0.01 0.02 0.02 0.02 0.02 0.03 0.03 0.03 0.03 0.04 0.05 0.06
0.00 0.00 0.00 0.00 0.00 0.00 0.00 0.00 0.00 0.00 0.00 0.00 0.00 0.00 0.00 0.00 0.00 0.00 0.00 0.01 0.01 0.00 0.00 0.01 0.00 0.00 0.00 0.01 0.01 0.02 0.02 0.01 0.01 0.01 0.01 0.02 0.02 0.02 0.03 0.03 0.03 0.03 0.04 0.05
0.00 0.00 0.00 0.00 0.00 0.00 0.00 0.00 0.00 0.00 0.00 0.00 0.00 0.00 0.00 0.00 0.00 0.00 0.00 0.01 0.01 0.01 0.00 0.00 0.00 0.00 0.00 0.01 0.01 0.01 0.02 0.02 0.01 0.01 0.01 0.01 0.02 0.02 0.03 0.04 0.04 0.03 0.04 0.05
0.00 0.00 0.00 0.00 0.00 0.00 0.00 0.00 0.00 0.00 0.00 0.00 0.00 0.00 0.00 0.00 0.00 0.00 0.00 0.01 0.01 0.01 0.00 0.00 0.00 0.00 0.00 0.00 0.01 0.01 0.01 0.01 0.01 0.01 0.01 0.01 0.01 0.01 0.02 0.02 0.02 0.03 0.04 0.03
0.00 0.00 0.00 0.00 0.00 0.00 0.00 0.00 0.00 0.00 0.00 0.00 0.00 0.00 0.00 0.00 0.00 0.00 0.00 0.01 0.01 0.01 0.00 0.00 0.00 0.00 0.00 0.00 0.00 0.01 0.01 0.01 0.01 0.01 0.01 0.01 0.01 0.01 0.01 0.01 0.01 0.03 0.03 0.02
0.00 0.00 0.00 0.00 0.00 0.00 0.00 0.00 0.00 0.00 0.00 0.00 0.00 0.00 0.00 0.00 0.00 0.00 0.00 0.00 0.00 0.00 0.00 0.00 0.00 0.00 0.00 0.00 0.00 0.00 0.01 0.00 0.00 0.01 0.01 0.01 0.01 0.01 0.01 0.01 0.02 0.02 0.02 0.02
0.00 0.00 0.00 0.00 0.00 0.00 0.00 0.00 0.00 0.00 0.00 0.00 0.00 0.00 0.00 0.00 0.00 0.00 0.00 0.00 0.00 0.00 0.00 0.00 0.00 0.00 0.00 0.00 0.01 0.01 0.01 0.00 0.00 0.01 0.01 0.01 0.02 0.01 0.01 0.02 0.02 0.02 0.02 0.02
0.00 0.00 0.00 0.00 0.00 0.00 0.00 0.00 0.00 0.00 0.00 0.00 0.00 0.00 0.00 0.00 0.00 0.00 0.00 0.00 0.00 0.00 0.00 0.00 0.00 0.00 0.00 0.00 0.00 0.01 0.01 0.00 0.01 0.01 0.01 0.01 0.02 0.02 0.01 0.01 0.01 0.02 0.02 0.02
MSLP
1013.48 1013.80 1014.08 1014.30 1014.47 1014.59 1014.66 1014.68 1014.66 1014.60 1014.51 1014.40 1014.27 1014.13 1013.98 1013.84 1013.69 1013.53 1013.36 1013.16 1012.95 1012.70 1012.43 1012.14 1011.82 1011.48 1011.11 1010.72 1010.30 1009.83 1009.33 1008.78 1008.20 1007.60 1007.00 1006.43 1005.90 1005.46 1005.11 1004.88 1004.77 1004.78 1004.90 1005.11
1013.75 1014.10 1014.37 1014.58 1014.71 1014.77 1014.78 1014.74 1014.67 1014.58 1014.48 1014.37 1014.25 1014.13 1014.01 1013.88 1013.73 1013.56 1013.36 1013.14 1012.89 1012.61 1012.31 1012.00 1011.66 1011.32 1010.95 1010.55 1010.12 1009.64 1009.12 1008.55 1007.93 1007.29 1006.65 1006.02 1005.45 1004.96 1004.57 1004.30 1004.15 1004.12 1004.21 1004.40
1013.96 1014.31 1014.57 1014.75 1014.85 1014.87 1014.84 1014.77 1014.67 1014.57 1014.46 1014.36 1014.26 1014.16 1014.04 1013.91 1013.75 1013.55 1013.32 1013.06 1012.77 1012.45 1012.13 1011.79 1011.44 1011.09 1010.72 1010.32 1009.88 1009.39 1008.85 1008.25 1007.61 1006.95 1006.27 1005.63 1005.03 1004.52 1004.11 1003.82 1003.66 1003.62 1003.70 1003.87
1014.11 1014.43 1014.67 1014.82 1014.88 1014.88 1014.82 1014.74 1014.64 1014.54 1014.44 1014.36 1014.27 1014.17 1014.05 1013.91 1013.72 1013.50 1013.23 1012.93 1012.59 1012.25 1011.89 1011.53 1011.17 1010.80 1010.42 1010.01 1009.56 1009.06 1008.50 1007.88 1007.22 1006.53 1005.85 1005.20 1004.61 1004.11 1003.71 1003.44 1003.29 1003.26 1003.34 1003.51
1014.17 1014.45 1014.64 1014.76 1014.81 1014.79 1014.73 1014.65 1014.56 1014.48 1014.40 1014.33 1014.25 1014.16 1014.03 1013.87 1013.66 1013.40 1013.10 1012.75 1012.39 1012.01 1011.62 1011.24 1010.86 1010.48 1010.08 1009.66 1009.18 1008.66 1008.07 1007.43 1006.76 1006.06 1005.38 1004.74 1004.18 1003.71 1003.35 1003.12 1003.01 1003.01 1003.10 1003.28
1014.12 1014.34 1014.50 1014.59 1014.62 1014.61 1014.56 1014.50 1014.44 1014.38 1014.32 1014.27 1014.20 1014.11 1013.98 1013.80 1013.57 1013.28 1012.94 1012.57 1012.17 1011.76 1011.36 1010.96 1010.56 1010.15 1009.73 1009.28 1008.77 1008.22 1007.61 1006.95 1006.26 1005.56 1004.89 1004.28 1003.75 1003.33 1003.03 1002.85 1002.79 1002.83 1002.95 1003.13
1013.95 1014.12 1014.24 1014.32 1014.35 1014.36 1014.33 1014.31 1014.27 1014.24 1014.21 1014.18 1014.12 1014.03 1013.89 1013.70 1013.45 1013.14 1012.78 1012.39 1011.97 1011.55 1011.12 1010.70 1010.28 1009.85 1009.40 1008.91 1008.37 1007.78 1007.14 1006.46 1005.76 1005.07 1004.41 1003.84 1003.35 1002.99 1002.75 1002.63 1002.62 1002.70 1002.85 1003.04
1013.66 1013.80 1013.91 1013.98 1014.04 1014.07 1014.09 1014.10 1014.10 1014.10 1014.10 1014.07 1014.02 1013.92 1013.78 1013.58 1013.31 1012.99 1012.63 1012.23 1011.80 1011.37 1010.93 1010.49 1010.04 1009.58 1009.10 1008.57 1008.00 1007.37 1006.71 1006.01 1005.31 1004.63 1004.00 1003.46 1003.03 1002.71 1002.53 1002.47 1002.51 1002.63 1002.81 1003.01
1013.29 1013.41 1013.52 1013.62 1013.71 1013.79 1013.85 1013.90 1013.95 1013.97 1013.98 1013.96 1013.90 1013.80 1013.65 1013.44 1013.17 1012.85 1012.49 1012.09 1011.66 1011.22 1010.78 1010.32 1009.85 1009.36 1008.84 1008.27 1007.66 1007.01 1006.32 1005.62 1004.93 1004.27 1003.67 1003.17 1002.79 1002.53 1002.40 1002.38 1002.46 1002.61 1002.81 1003.02
1012.85 1012.98 1013.13 1013.27 1013.42 1013.55 1013.66 1013.75 1013.82 1013.86 1013.88 1013.85 1013.78 1013.67 1013.50 1013.29 1013.02 1012.70 1012.35 1011.96 1011.54 1011.10 1010.65 1010.18 1009.68 1009.16 1008.60 1008.00 1007.36 1006.69 1006.00 1005.30 1004.62 1003.99 1003.44 1002.99 1002.66 1002.45 1002.36 1002.38 1002.49 1002.66 1002.87 1003.08
1012.39 1012.56 1012.76 1012.96 1013.17 1013.35 1013.51 1013.64 1013.73 1013.77 1013.78 1013.73 1013.65 1013.51 1013.34 1013.12 1012.85 1012.55 1012.21 1011.83 1011.43 1010.99 1010.53 1010.04 1009.52 1008.96 1008.37 1007.74 1007.07 1006.39 1005.70 1005.02 1004.38 1003.80 1003.30 1002.90 1002.62 1002.46 1002.41 1002.46 1002.58 1002.76 1002.97 1003.19
1011.92 1012.15 1012.41 1012.69 1012.96 1013.20 1013.40 1013.55 1013.65 1013.69 1013.67 1013.61 1013.50 1013.34 1013.15 1012.93 1012.67 1012.38 1012.06 1011.71 1011.31 1010.88 1010.41 1009.90 1009.35 1008.75 1008.13 1007.47 1006.79 1006.10 1005.42 1004.78 1004.18 1003.65 1003.22 1002.88 1002.66 1002.54 1002.53 1002.60 1002.73 1002.92 1003.12 1003.33
1011.45 1011.75 1012.09 1012.43 1012.77 1013.06 1013.30 1013.47 1013.56 1013.59 1013.55 1013.46 1013.33 1013.16 1012.96 1012.74 1012.50 1012.23 1011.93 1011.59 1011.21 1010.78 1010.30 1009.76 1009.17 1008.54 1007.88 1007.19 1006.50 1005.81 1005.16 1004.55 1004.01 1003.55 1003.18 1002.91 1002.75 1002.68 1002.69 1002.78 1002.92 1003.10 1003.30 1003.49
1010.99 1011.35 1011.76 1012.17 1012.56 1012.89 1013.16 1013.34 1013.44 1013.46 1013.41 1013.30 1013.15 1012.98 1012.79 1012.58 1012.36 1012.11 1011.84 1011.52 1011.15 1010.71 1010.21 1009.65 1009.02 1008.35 1007.65 1006.94 1006.23 1005.55 1004.92 1004.35 1003.87 1003.47 1003.18 1002.98 1002.87 1002.84 1002.89 1002.99 1003.13 1003.29 1003.46 1003.63
1010.52 1010.94 1011.41 1011.87 1012.31 1012.68 1012.97 1013.17 1013.28 1013.29 1013.24 1013.13 1012.99 1012.82 1012.65 1012.47 1012.27 1012.06 1011.81 1011.51 1011.15 1010.71 1010.19 1009.59 1008.93 1008.22 1007.48 1006.73 1006.01 1005.34 1004.73 1004.21 1003.78 1003.45 1003.22 1003.08 1003.02 1003.03 1003.09 1003.19 1003.32 1003.46 1003.60 1003.73
1010.06 1010.52 1011.03 1011.54 1012.01 1012.42 1012.73 1012.95 1013.07 1013.10 1013.06 1012.97 1012.85 1012.71 1012.57 1012.43 1012.27 1012.09 1011.87 1011.59 1011.22 1010.78 1010.24 1009.62 1008.92 1008.17 1007.40 1006.63 1005.90 1005.22 1004.64 1004.15 1003.77 1003.49 1003.32 1003.23 1003.21 1003.24 1003.31 1003.40 1003.49 1003.59 1003.69 1003.77
1009.61 1010.11 1010.64 1011.18 1011.68 1012.11 1012.45 1012.70 1012.84 1012.90 1012.90 1012.84 1012.76 1012.66 1012.56 1012.45 1012.34 1012.19 1011.99 1011.73 1011.37 1010.92 1010.37 1009.72 1009.00 1008.22 1007.43 1006.64 1005.90 1005.24 1004.67 1004.21 1003.86 1003.62 1003.48 1003.42 1003.42 1003.46 1003.52 1003.58 1003.63 1003.68 1003.71 1003.72
1009.22 1009.72 1010.26 1010.82 1011.33 1011.78 1012.15 1012.43 1012.61 1012.71 1012.74 1012.73 1012.69 1012.64 1012.59 1012.52 1012.44 1012.33 1012.15 1011.90 1011.56 1011.11 1010.55 1009.89 1009.16 1008.37 1007.56 1006.78 1006.04 1005.38 1004.83 1004.39 1004.07 1003.85 1003.73 1003.67 1003.67 1003.69 1003.71 1003.73 1003.73 1003.70 1003.66 1003.60
1008.90 1009.39 1009.93 1010.48 1011.00 1011.47 1011.86 1012.16 1012.38 1012.52 1012.60 1012.64 1012.65 1012.64 1012.63 1012.59 1012.54 1012.45 1012.29 1012.06 1011.72 1011.28 1010.73 1010.08 1009.35 1008.58 1007.79 1007.01 1006.29 1005.65 1005.11 1004.69 1004.37 1004.16 1004.03 1003.96 1003.94 1003.92 1003.89 1003.85 1003.78 1003.68 1003.55 1003.41
1008.66 1009.14 1009.66 1010.19 1010.71 1011.18 1011.58 1011.91 1012.16 1012.34 1012.46 1012.53 1012.58 1012.61 1012.62 1012.61 1012.57 1012.49 1012.35 1012.13 1011.81 1011.38 1010.86 1010.24 1009.55 1008.81 1008.05 1007.31 1006.62 1006.01 1005.49 1005.07 1004.75 1004.53 1004.38 1004.28 1004.21 1004.14 1004.05 1003.94 1003.80 1003.63 1003.43 1003.21
1008.50 1008.95 1009.43 1009.94 1010.43 1010.89 1011.30 1011.64 1011.91 1012.12 1012.28 1012.38 1012.46 1012.50 1012.53 1012.53 1012.50 1012.43 1012.29 1012.08 1011.79 1011.40 1010.91 1010.34 1009.71 1009.03 1008.33 1007.64 1007.00 1006.42 1005.91 1005.50 1005.17 1004.93 1004.74 1004.60 1004.47 1004.35 1004.20 1004.03 1003.82 1003.59 1003.33 1003.06
1008.38 1008.77 1009.21 1009.68 1010.14 1010.59 1010.99 1011.34 1011.63 1011.86 1012.03 1012.16 1012.25 1012.31 1012.34 1012.34 1012.31 1012.24 1012.12 1011.93 1011.66 1011.32 1010.89 1010.39 1009.83 1009.22 1008.60 1007.98 1007.39 1006.85 1006.37 1005.96 1005.62 1005.34 1005.11 1004.92 1004.74 1004.56 1004.36 1004.14 1003.89 1003.62 1003.32 1003.02
1008.22 1008.55 1008.94 1009.36 1009.79 1010.21 1010.61 1010.96 1011.26 1011.51 1011.70 1011.85 1011.95 1012.02 1012.05 1012.06 1012.03 1011.97 1011.86 1011.70 1011.48 1011.19 1010.83 1010.41 1009.94 1009.42 1008.88 1008.34 1007.81 1007.31 1006.85 1006.44 1006.08 1005.77 1005.51 1005.27 1005.04 1004.82 1004.58 1004.34 1004.07 1003.78 1003.48 1003.18
1007.96 1008.23 1008.56 1008.93 1009.33 1009.73 1010.12 1010.47 1010.79 1011.06 1011.28 1011.45 1011.57 1011.66 1011.71 1011.72 1011.71 1011.67 1011.59 1011.46 1011.29 1011.07 1010.79 1010.46 1010.08 1009.66 1009.21 1008.74 1008.27 1007.81 1007.37 1006.97 1006.60 1006.26 1005.96 1005.68 1005.42 1005.17 1004.92 1004.67 1004.40 1004.14 1003.86 1003.60
1007.55 1007.76 1008.03 1008.35 1008.72 1009.10 1009.49 1009.86 1010.21 1010.51 1010.77 1010.98 1011.14 1011.26 1011.34 1011.39 1011.42 1011.41 1011.37 1011.30 1011.19 1011.04 1010.84 1010.60 1010.31 1009.98 1009.61 1009.22 1008.80 1008.38 1007.97 1007.57 1007.19 1006.84 1006.51 1006.21 1005.94 1005.68 1005.43 1005.19 1004.96 1004.73 1004.51 1004.30
1006.97 1007.11 1007.32 1007.61 1007.95 1008.33 1008.73 1009.13 1009.52 1009.87 1010.19 1010.46 1010.69 1010.87 1011.01 1011.11 1011.19 1011.23 1011.25 1011.25 1011.21 1011.13 1011.02 1010.86 1010.66 1010.41 1010.12 1009.79 1009.43 1009.06 1008.67 1008.28 1007.90 1007.54 1007.21 1006.90 1006.63 1006.38 1006.15 1005.95 1005.76 1005.59 1005.43 1005.28
1006.23 1006.30 1006.47 1006.73 1007.06 1007.44 1007.87 1008.31 1008.75 1009.18 1009.57 1009.92 1010.23 1010.49 1010.72 1010.90 1011.05 1011.17 1011.26 1011.32 1011.36 1011.36 1011.32 1011.24 1011.12 1010.95 1010.73 1010.46 1010.16 1009.82 1009.47 1009.10 1008.74 1008.39 1008.07 1007.78 1007.51 1007.29 1007.09 1006.93 1006.79 1006.67 1006.58 1006.49
Thickness
5731 5731 5726 5717 5711 5709 5702 5695 5689 5686 5684 5683 5675 5667 5663 5657 5652 5645 5638 5632 5626 5620 5615 5609 5604 5598 5592 5586 5581 5575 5569 5564 5560 5556 5553 5551 5549 5549 5550 5551 5554 5556 5557 5559
5723 5724 5719 5710 5707 5704 5700 5694 5690 5686 5682 5681 5671 5664 5656 5649 5643 5635 5628 5623 5618 5612 5606 5600 5594 5588 5582 5576 5570 5563 5557 5553 5548 5544 5540 5538 5536 5536 5536 5537 5539 5541 5543 5545
5724 5719 5711 5704 5704 5700 5696 5693 5686 5677 5674 5672 5663 5655 5647 5642 5636 5626 5620 5615 5610 5604 5598 5592 5586 5579 5573 5566 5560 5554 5548 5543 5538 5534 5530 5527 5526 5525 5525 5525 5526 5527 5530 5532
5723 5710 5695 5706 5712 5704 5694 5692 5688 5678 5672 5664 5657 5651 5647 5641 5629 5619 5614 5609 5603 5597 5591 5585 5579 5572 5564 5557 5551 5545 5540 5534 5529 5525 5520 5518 5515 5513 5513 5514 5516 5517 5520 5524
5717 5713 5708 5705 5706 5700 5687 5685 5684 5672 5666 5661 5657 5649 5649 5636 5623 5614 5609 5603 5597 5591 5585 5579 5573 5565 5557 5551 5545 5539 5533 5527 5522 5517 5513 5510 5508 5506 5505 5505 5508 5511 5513 5517
5712 5699 5695 5702 5706 5702 5689 5682 5678 5669 5660 5654 5648 5640 5638 5629 5619 5612 5604 5598 5592 5586 5580 5574 5567 5558 5551 5545 5539 5533 5526 5521 5516 5512 5508 5505 5503 5501 5500 5500 5503 5506 5509 5513
5708 5701 5706 5709 5706 5698 5680 5672 5673 5666 5657 5648 5638 5630 5627 5622 5615 5607 5600 5594 5588 5582 5575 5569 5561 5553 5545 5539 5533 5527 5521 5515 5511 5508 5504 5502 5499 5498 5498 5499 5501 5503 5506 5509
5706 5699 5697 5708 5702 5688 5680 5678 5671 5663 5655 5645 5637 5632 5625 5617 5610 5604 5597 5591 5585 5578 5572 5565 5557 5549 5542 5535 5529 5523 5517 5513 5509 5506 5503 5501 5498 5496 5497 5497 5500 5502 5504 5507
5711 5707 5709 5707 5699 5692 5684 5675 5668 5660 5653 5644 5636 5629 5622 5614 5607 5600 5594 5587 5581 5575 5569 5562 5555 5547 5540 5534 5527 5521 5516 5511 5508 5505 5502 5500 5498 5497 5497 5498 5499 5501 5503 5506
5710 5715 5711 5705 5699 5691 5683 5673 5666 5658 5650 5642 5633 5626 5618 5611 5604 5597 5590 5584 5578 5572 5566 5560 5553 5546 5539 5533 5527 5521 5516 5512 5508 5506 5504 5502 5499 5498 5498 5498 5499 5500 5502 5504
5708 5712 5708 5703 5695 5688 5680 5672 5664 5656 5648 5639 5630 5623 5615 5608 5601 5594 5587 5582 5575 5569 5563 5557 5552 5546 5541 5534 5528 5522 5518 5514 5511 5508 5506 5503 5502 5500 5500 5499 5498 5498 5501 5503
5711 5712 5705 5699 5695 5687 5677 5669 5661 5653 5645 5638 5629 5621 5613 5606 5599 5592 5586 5579 5573 5567 5562 5557 5552 5547 5542 5536 5530 5524 5521 5517 5514 5512 5509 5507 5506 5505 5498 5497 5495 5495 5495 5497
5719 5714 5707 5699 5691 5684 5675 5668 5660 5652 5643 5635 5628 5619 5611 5604 5598 5591 5584 5578 5571 5566 5561 5557 5553 5549 5544 5538 5533 5528 5523 5520 5518 5515 5513 5512 5511 5509 5508 5503 5498 5496 5497 5498
5715 5708 5699 5694 5688 5681 5674 5667 5659 5652 5644 5635 5627 5618 5611 5603 5597 5590 5583 5577 5571 5566 5562 5558 5554 5551 5546 5541 5536 5532 5529 5525 5521 5519 5518 5517 5515 5514 5513 5512 5511 5510 5503 5500
5710 5706 5701 5694 5686 5679 5671 5665 5657 5651 5642 5634 5626 5617 5609 5601 5595 5589 5583 5577 5571 5567 5564 5559 5555 5552 5548 5544 5540 5537 5534 5530 5527 5524 5523 5522 5521 5519 5518 5517 5516 5516 5514 5509
5709 5703 5697 5689 5682 5676 5669 5662 5654 5648 5640 5632 5624 5616 5608 5601 5595 5589 5583 5577 5572 5568 5564 5559 5556 5553 5550 5548 5544 5542 5538 5532 5530 5529 5528 5527 5525 5524 5523 5522 5521 5521 5519 5519
5703 5696 5691 5685 5679 5673 5667 5660 5652 5645 5638 5630 5621 5614 5607 5601 5595 5589 5583 5577 5572 5569 5565 5560 5557 5555 5553 5551 5548 5547 5544 5540 5534 5535 5533 5532 5530 5529 5528 5527 5525 5525 5523 5520
5707 5702 5695 5687 5680 5672 5664 5658 5650 5643 5635 5627 5620 5613 5606 5600 5593 5587 5582 5577 5574 5571 5567 5561 5558 5556 5556 5554 5551 5549 5547 5544 5541 5539 5537 5536 5534 5534 5533 5531 5530 5529 5528 5527
5703 5697 5690 5683 5677 5669 5662 5655 5648 5640 5633 5625 5618 5611 5604 5598 5591 5585 5581 5578 5575 5571 5566 5562 5557 5560 5558 5556 5553 5553 5551 5548 5546 5544 5542 5537 5539 5538 5537 5537 5536 5535 5534 5533
5698 5692 5685 5679 5672 5665 5658 5651 5644 5637 5630 5623 5616 5610 5603 5597 5590 5584 5581 5579 5573 5566 5562 5560 5561 5561 5559 5558 5555 5556 5554 5551 5549 5548 5545 5544 5542 5541 5541 5541 5540 5540 5539 5538
5692 5686 5680 5674 5667 5661 5655 5648 5641 5634 5628 5621 5614 5608 5601 5595 5590 5584 5580 5579 5572 5564 5562 5561 5561 5559 5559 5556 5557 5558 5556 5554 5552 5550 5548 5547 5546 5545 5544 5544 5543 5543 5542 5542
5687 5681 5675 5670 5663 5656 5651 5644 5638 5632 5625 5619 5613 5606 5599 5594 5590 5585 5580 5574 5568 5560 5561 5563 5560 5554 5553 5556 5561 5560 5557 5556 5555 5552 5550 5549 5548 5547 5547 5547 5547 5546 5545 5545
5682 5677 5671 5665 5659 5653 5647 5640 5634 5628 5622 5616 5610 5603 5597 5591 5587 5583 5579 5573 5566 5558 5560 5559 5552 5551 5551 5561 5561 5560 5558 5556 5555 5554 5552 5551 5551 5549 5549 5549 5550 5549 5549 5549
5675 5670 5666 5661 5655 5648 5641 5637 5631 5624 5619 5613 5608 5600 5593 5590 5586 5582 5575 5568 5561 5557 5561 5555 5550 5551 5554 5560 5559 5558 5557 5555 5555 5554 5554 5553 5553 5552 5552 5551 5551 5551 5551 5551
5667 5664 5660 5654 5649 5646 5640 5633 5627 5621 5616 5612 5607 5599 5593 5587 5581 5577 5571 5567 5561 5557 5560 5557 5551 5551 5556 5557 5557 5556 5555 5552 5552 5553 5553 5552 5553 5553 5553 5551 5551 5551 5551 5551
5659 5656 5654 5649 5647 5643 5640 5633 5627 5621 5616 5609 5604 5598 5592 5585 5578 5574 5570 5566 5561 5556 5557 5556 5554 5552 5553 5553 5552 5552 5552 5551 5551 5551 5550 5550 5550 5551 5550 5550 5550 5551 5551 5551
5651 5648 5644 5643 5640 5637 5635 5629 5623 5618 5613 5606 5600 5594 5587 5581 5576 5571 5567 5563 5560 5556 5554 5552 5550 5548 5547 5546 5546 5546 5546 5546 5546 5546 5547 5547 5547 5547 5548 5547 5548 5548 5549 5550